Time,TemperatureF,DewpointF,PressureIn,WindDirection,WindDirectionDegrees,WindSpeedMPH,WindSpeedGustMPH,Humidity,HourlyPrecipIn,Conditions,Clouds,dailyrainin,SoftwareType,DateUTC
2013-01-12 00:11:00,54.9,49.0,29.89,SW,234,3.0,-999.0,80,-99.99,,,0.00,weatherlink.com 1.10,2013-01-12 06:11:00,
2013-01-12 00:26:00,54.8,49.0,29.89,SSW,195,3.0,-999.0,80,-99.99,,,0.00,weatherlink.com 1.10,2013-01-12 06:26:00,
2013-01-12 00:41:00,55.1,49.0,29.88,WSW,246,8.0,-999.0,80,-99.99,,,0.00,weatherlink.com 1.10,2013-01-12 06:41:00,
2013-01-12 00:56:00,55.0,49.0,29.88,SW,217,5.0,-999.0,80,-99.99,,,0.00,weatherlink.com 1.10,2013-01-12 06:56:00,
2013-01-12 01:11:00,55.5,49.0,29.87,WSW,242,7.0,-999.0,80,-99.99,,,0.00,weatherlink.com 1.10,2013-01-12 07:11:00,
2013-01-12 01:26:00,55.4,49.0,29.88,SSW,198,9.0,-999.0,80,-99.99,,,0.00,weatherlink.com 1.10,2013-01-12 07:26:00,
2013-01-12 01:41:00,55.4,49.0,29.89,SW,217,10.0,-999.0,80,-99.99,,,0.00,weatherlink.com 1.10,2013-01-12 07:41:00,
2013-01-12 01:56:00,55.5,49.0,29.89,WSW,252,4.0,-999.0,80,-99.99,,,0.00,weatherlink.com 1.10,2013-01-12 07:56:00,
2013-01-12 02:11:00,55.3,49.0,29.89,WSW,250,7.0,-999.0,80,-99.99,,,0.00,weatherlink.com 1.10,2013-01-12 08:11:00,
2013-01-12 02:26:00,55.3,49.0,29.89,WSW,238,6.0,-999.0,80,-99.99,,,0.00,weatherlink.com 1.10,2013-01-12 08:26:00,
2013-01-12 02:41:00,55.3,49.0,29.88,SW,227,5.0,-999.0,80,-99.99,,,0.00,weatherlink.com 1.10,2013-01-12 08:41:00,
2013-01-12 02:56:00,55.7,50.0,29.88,SW,235,6.0,-999.0,80,-99.99,,,0.00,weatherlink.com 1.10,2013-01-12 08:56:00,
2013-01-12 03:11:00,55.6,50.0,29.89,SSW,211,5.0,-999.0,80,-99.99,,,0.00,weatherlink.com 1.10,2013-01-12 09:11:00,
2013-01-12 03:26:00,55.0,49.0,29.89,WSW,247,0.0,-999.0,80,-99.99,,,0.00,weatherlink.com 1.10,2013-01-12 09:26:00,
2013-01-12 03:41:00,54.4,48.0,29.89,WSW,247,0.0,-999.0,79,-99.99,,,0.00,weatherlink.com 1.10,2013-01-12 09:41:00,
2013-01-12 03:56:00,54.3,47.0,29.89,WSW,237,0.0,-999.0,76,-99.99,,,0.00,weatherlink.com 1.10,2013-01-12 09:56:00,
2013-01-12 04:11:00,54.6,47.0,29.88,WSW,238,1.0,-999.0,76,-99.99,,,0.00,weatherlink.com 1.10,2013-01-12 10:11:00,
2013-01-12 04:26:00,54.6,47.0,29.88,SW,229,0.0,-999.0,76,-99.99,,,0.00,weatherlink.com 1.10,2013-01-12 10:26:00,
2013-01-12 04:41:00,54.5,46.0,29.87,WSW,240,0.0,-999.0,74,-99.99,,,0.00,weatherlink.com 1.10,2013-01-12 10:41:00,
2013-01-12 04:56:00,54.5,46.0,29.87,WSW,247,0.0,-999.0,73,-99.99,,,0.00,weatherlink.com 1.10,2013-01-12 10:56:00,
2013-01-12 05:11:00,54.9,45.0,29.87,SW,229,0.0,-999.0,70,-99.99,,,0.00,weatherlink.com 1.10,2013-01-12 11:11:00,
2013-01-12 05:26:00,55.1,46.0,29.87,WSW,237,0.0,-999.0,71,-99.99,,,0.00,weatherlink.com 1.10,2013-01-12 11:26:00,
2013-01-12 05:41:00,55.4,46.0,29.87,SW,223,0.0,-999.0,71,-99.99,,,0.00,weatherlink.com 1.10,2013-01-12 11:41:00,
2013-01-12 05:56:00,55.3,46.0,29.87,SW,220,0.0,-999.0,71,-99.99,,,0.00,weatherlink.com 1.10,2013-01-12 11:56:00,
2013-01-12 06:11:00,55.1,45.0,29.86,SSW,205,0.0,-999.0,70,-99.99,,,0.00,weatherlink.com 1.10,2013-01-12 12:11:00,
2013-01-12 06:26:00,55.2,45.0,29.86,SSW,201,0.0,-999.0,68,-99.99,,,0.00,weatherlink.com 1.10,2013-01-12 12:26:00,
2013-01-12 06:41:00,55.3,44.0,29.87,SW,225,0.0,-999.0,67,-99.99,,,0.00,weatherlink.com 1.10,2013-01-12 12:41:00,
2013-01-12 06:56:00,55.6,44.0,29.87,SW,235,0.0,-999.0,66,-99.99,,,0.00,weatherlink.com 1.10,2013-01-12 12:56:00,
2013-01-12 07:11:00,55.8,44.0,29.86,SW,226,0.0,-999.0,66,-99.99,,,0.00,weatherlink.com 1.10,2013-01-12 13:11:00,
2013-01-12 07:26:00,55.9,45.0,29.85,SW,227,0.0,-999.0,66,-99.99,,,0.00,weatherlink.com 1.10,2013-01-12 13:26:00,
2013-01-12 07:41:00,55.9,45.0,29.86,SW,227,0.0,-999.0,66,-99.99,,,0.00,weatherlink.com 1.10,2013-01-12 13:41:00,
2013-01-12 07:56:00,55.7,45.0,29.87,SSW,210,0.0,-999.0,67,-99.99,,,0.00,weatherlink.com 1.10,2013-01-12 13:56:00,
2013-01-12 08:11:00,55.5,44.0,29.87,SSW,199,0.0,-999.0,66,-99.99,,,0.00,weatherlink.com 1.10,2013-01-12 14:11:00,
2013-01-12 08:26:00,55.3,44.0,29.89,SSW,198,0.0,-999.0,67,-99.99,,,0.00,weatherlink.com 1.10,2013-01-12 14:26:00,
2013-01-12 08:41:00,53.7,43.0,29.87,SSW,198,0.0,-999.0,67,-99.99,,,0.00,weatherlink.com 1.10,2013-01-12 14:41:00,
2013-01-12 08:56:00,53.1,42.0,29.87,SSW,198,0.0,-999.0,67,-99.99,,,0.00,weatherlink.com 1.10,2013-01-12 14:56:00,
2013-01-12 09:11:00,53.5,43.0,29.87,SSW,196,0.0,-999.0,67,-99.99,,,0.00,weatherlink.com 1.10,2013-01-12 15:11:00,
2013-01-12 09:26:00,53.7,43.0,29.86,South,183,0.0,-999.0,67,-99.99,,,0.00,weatherlink.com 1.10,2013-01-12 15:26:00,
2013-01-12 09:41:00,54.2,44.0,29.87,South,180,0.0,-999.0,68,-99.99,,,0.01,weatherlink.com 1.10,2013-01-12 15:41:00,
2013-01-12 09:56:00,53.1,43.0,29.87,SSE,155,8.0,-999.0,68,-99.99,,,0.10,weatherlink.com 1.10,2013-01-12 15:56:00,
2013-01-12 10:11:00,54.5,44.0,29.89,South,184,5.0,-999.0,68,-99.99,,,0.17,weatherlink.com 1.10,2013-01-12 16:11:00,
2013-01-12 10:26:00,56.0,46.0,29.88,SSW,196,5.0,-999.0,68,-99.99,,,0.29,weatherlink.com 1.10,2013-01-12 16:26:00,
2013-01-12 10:41:00,56.7,46.0,29.86,South,178,0.0,-999.0,68,-99.99,,,0.30,weatherlink.com 1.10,2013-01-12 16:41:00,
2013-01-12 10:56:00,57.3,47.0,29.87,SSW,201,0.0,-999.0,68,-99.99,,,0.32,weatherlink.com 1.10,2013-01-12 16:56:00,
2013-01-12 11:11:00,57.6,47.0,29.85,SSW,202,0.0,-999.0,69,-99.99,,,0.32,weatherlink.com 1.10,2013-01-12 17:11:00,
2013-01-12 11:26:00,57.7,48.0,29.84,SSW,202,0.0,-999.0,69,-99.99,,,0.33,weatherlink.com 1.10,2013-01-12 17:26:00,
2013-01-12 11:41:00,57.7,48.0,29.83,SSW,202,0.0,-999.0,69,-99.99,,,0.33,weatherlink.com 1.10,2013-01-12 17:41:00,
2013-01-12 11:56:00,57.7,48.0,29.83,SSW,202,0.0,-999.0,69,-99.99,,,0.37,weatherlink.com 1.10,2013-01-12 17:56:00,
2013-01-12 12:11:00,57.8,48.0,29.81,SSW,202,0.0,-999.0,69,-99.99,,,0.39,weatherlink.com 1.10,2013-01-12 18:11:00,
2013-01-12 12:26:00,57.2,47.0,29.78,SSW,202,0.0,-999.0,69,-99.99,,,0.41,weatherlink.com 1.10,2013-01-12 18:26:00,
2013-01-12 12:41:00,57.5,47.0,29.79,SSW,202,0.0,-999.0,69,-99.99,,,0.41,weatherlink.com 1.10,2013-01-12 18:41:00,
2013-01-12 12:56:00,57.2,47.0,29.79,SSW,202,0.0,-999.0,69,-99.99,,,0.43,weatherlink.com 1.10,2013-01-12 18:56:00,
2013-01-12 13:11:00,57.1,47.0,29.75,SSW,202,0.0,-999.0,69,-99.99,,,0.46,weatherlink.com 1.10,2013-01-12 19:11:00,
2013-01-12 13:26:00,57.3,47.0,29.72,SSW,202,0.0,-999.0,69,-99.99,,,0.46,weatherlink.com 1.10,2013-01-12 19:26:00,
2013-01-12 13:41:00,56.9,47.0,29.73,SSW,202,0.0,-999.0,69,-99.99,,,0.46,weatherlink.com 1.10,2013-01-12 19:41:00,
2013-01-12 13:56:00,55.6,46.0,29.75,ESE,114,0.0,-999.0,69,-99.99,,,0.65,weatherlink.com 1.10,2013-01-12 19:56:00,
2013-01-12 14:11:00,55.8,46.0,29.74,East,82,6.0,-999.0,69,-99.99,,,0.83,weatherlink.com 1.10,2013-01-12 20:11:00,
2013-01-12 14:26:00,56.3,46.0,29.72,ENE,76,7.0,-999.0,69,-99.99,,,0.86,weatherlink.com 1.10,2013-01-12 20:26:00,
2013-01-12 14:41:00,56.8,47.0,29.71,ENE,74,4.0,-999.0,70,-99.99,,,0.91,weatherlink.com 1.10,2013-01-12 20:41:00,
2013-01-12 14:58:00,56.3,47.0,29.69,NE,52,8.0,-999.0,70,-99.99,,,0.96,weatherlink.com 1.10,2013-01-12 20:58:00,
2013-01-12 15:11:00,56.5,47.0,29.70,NE,53,0.0,-999.0,70,-99.99,,,1.16,weatherlink.com 1.10,2013-01-12 21:11:00,
2013-01-12 15:26:00,56.4,47.0,29.71,NE,53,0.0,-999.0,70,-99.99,,,1.27,weatherlink.com 1.10,2013-01-12 21:26:00,
2013-01-12 15:41:00,56.6,47.0,29.69,NE,34,0.0,-999.0,70,-99.99,,,1.43,weatherlink.com 1.10,2013-01-12 21:41:00,
2013-01-12 15:56:00,56.5,47.0,29.69,NE,34,1.0,-999.0,70,-99.99,,,1.82,weatherlink.com 1.10,2013-01-12 21:56:00,
2013-01-12 16:11:00,56.8,47.0,29.67,NE,34,0.0,-999.0,70,-99.99,,,2.23,weatherlink.com 1.10,2013-01-12 22:11:00,
2013-01-12 16:26:00,55.9,46.0,29.69,NNE,29,4.0,-999.0,70,-99.99,,,2.49,weatherlink.com 1.10,2013-01-12 22:26:00,
2013-01-12 16:43:00,56.5,47.0,29.68,NNE,29,0.0,-999.0,70,-99.99,,,2.98,weatherlink.com 1.10,2013-01-12 22:43:00,
2013-01-12 16:58:00,55.0,45.0,29.69,NW,310,1.0,-999.0,70,-99.99,,,3.43,weatherlink.com 1.10,2013-01-12 22:58:00,
2013-01-12 17:11:00,54.4,45.0,29.69,WNW,296,0.0,-999.0,70,-99.99,,,3.54,weatherlink.com 1.10,2013-01-12 23:11:00,
2013-01-12 17:26:00,54.4,45.0,29.69,NW,309,1.0,-999.0,71,-99.99,,,3.72,weatherlink.com 1.10,2013-01-12 23:26:00,
2013-01-12 17:41:00,53.7,44.0,29.70,NW,317,4.0,-999.0,70,-99.99,,,3.77,weatherlink.com 1.10,2013-01-12 23:41:00,
2013-01-12 17:56:00,53.3,44.0,29.69,NW,306,9.0,-999.0,70,-99.99,,,3.96,weatherlink.com 1.10,2013-01-12 23:56:00,
2013-01-12 18:26:00,51.7,43.0,29.70,NW,321,0.0,-999.0,71,-99.99,,,4.29,weatherlink.com 1.10,2013-01-13 00:26:00,
2013-01-12 18:41:00,52.5,43.0,29.69,NW,321,0.0,-999.0,71,-99.99,,,4.43,weatherlink.com 1.10,2013-01-13 00:41:00,
2013-01-12 18:56:00,52.2,43.0,29.68,NW,321,0.0,-999.0,71,-99.99,,,4.58,weatherlink.com 1.10,2013-01-13 00:56:00,
2013-01-12 19:11:00,52.3,43.0,29.69,NW,321,0.0,-999.0,71,-99.99,,,4.68,weatherlink.com 1.10,2013-01-13 01:11:00,
2013-01-12 19:26:00,52.1,43.0,29.73,WNW,292,0.0,-999.0,71,-99.99,,,4.72,weatherlink.com 1.10,2013-01-13 01:26:00,
2013-01-12 19:41:00,49.8,41.0,29.73,WNW,292,4.0,-999.0,71,-99.99,,,4.74,weatherlink.com 1.10,2013-01-13 01:41:00,
2013-01-12 19:56:00,46.9,38.0,29.73,WNW,292,5.0,-999.0,71,-99.99,,,4.74,weatherlink.com 1.10,2013-01-13 01:56:00,
2013-01-12 20:11:00,44.5,36.0,29.73,West,277,7.0,-999.0,71,-99.99,,,4.78,weatherlink.com 1.10,2013-01-13 02:11:00,
2013-01-12 20:26:00,44.1,35.0,29.73,West,280,7.0,-999.0,71,-99.99,,,4.78,weatherlink.com 1.10,2013-01-13 02:26:00,
2013-01-12 20:41:00,43.3,34.0,29.75,West,277,18.0,-999.0,71,-99.99,,,4.78,weatherlink.com 1.10,2013-01-13 02:41:00,
2013-01-12 20:56:00,42.2,33.0,29.75,West,276,13.0,-999.0,71,-99.99,,,4.82,weatherlink.com 1.10,2013-01-13 02:56:00,
2013-01-12 21:11:00,40.9,33.0,29.76,WNW,286,12.0,-999.0,72,-99.99,,,4.96,weatherlink.com 1.10,2013-01-13 03:11:00,
2013-01-12 21:26:00,39.5,31.0,29.75,NW,309,15.0,-999.0,72,-99.99,,,4.96,weatherlink.com 1.10,2013-01-13 03:26:00,
2013-01-12 21:41:00,38.6,30.0,29.77,NW,315,11.0,-999.0,72,-99.99,,,4.96,weatherlink.com 1.10,2013-01-13 03:41:00,
2013-01-12 21:56:00,37.1,29.0,29.77,North,5,6.0,-999.0,72,-99.99,,,4.96,weatherlink.com 1.10,2013-01-13 03:56:00,
2013-01-12 22:11:00,35.9,28.0,29.79,North,351,12.0,-999.0,72,-99.99,,,4.96,weatherlink.com 1.10,2013-01-13 04:11:00,
2013-01-12 22:26:00,34.4,27.0,29.79,North,5,11.0,-999.0,73,-99.99,,,4.98,weatherlink.com 1.10,2013-01-13 04:26:00,
2013-01-12 22:41:00,33.9,26.0,29.81,North,360,4.0,-999.0,73,-99.99,,,4.99,weatherlink.com 1.10,2013-01-13 04:41:00,
2013-01-12 22:56:00,33.7,26.0,29.83,NW,324,7.0,-999.0,73,-99.99,,,4.99,weatherlink.com 1.10,2013-01-13 04:56:00,
2013-01-12 23:11:00,33.0,25.0,29.82,NNW,348,8.0,-999.0,73,-99.99,,,5.00,weatherlink.com 1.10,2013-01-13 05:11:00,
2013-01-12 23:26:00,32.8,25.0,29.82,North,355,10.0,-999.0,73,-99.99,,,5.00,weatherlink.com 1.10,2013-01-13 05:26:00,
2013-01-12 23:41:00,32.7,25.0,29.83,North,355,6.0,-999.0,74,-99.99,,,5.00,weatherlink.com 1.10,2013-01-13 05:41:00,
2013-01-12 23:56:00,32.8,25.0,29.82,North,360,7.0,-999.0,74,-99.99,,,0.00,weatherlink.com 1.10,2013-01-13 05:56:00,